Weather in Horta

Portugal     38°32′10″N   28°37′47″W
temp.,
°C
wind,
m/s
gust,
m/s
humid.,
%
clouds,
%
prec.,
mm/h
press.,
hPa
HPBL,
m
31 july, sat
sat3100:00+22n3486100 0.0 1031243
03:00+22nne338480 0.0 1030358
06:00+21n338591 0.0 1029322
09:00+21n238218 0.0 1031316
12:00+22nnw227951 0.0 1031297
15:00+22nnw33764 0.0 1031431
18:00+23nnw44755 0.0 1031539
21:00+23nnw458194 0.0 1031479
1 august, sun
sun100:00+22n358599 0.0 1031390
03:00+22nw358563 0.0 1030439
06:00+22nnw468617 0.0 1030539
09:00+22nnw468717 0.0 1031491
12:00+22nnw56889 0.0 1031516
15:00+23nnw67876 0.0 1030513
18:00+23nnw67885 0.0 1030568
21:00+23nnw69915 0.1 1030407
2 august, mon
mon200:00+23nnw58930 0.1 1030341
03:00+22nnw68944 0.0 1028353
06:00+22nnw589419 0.1 1028335
09:00+22n69943 0.2 1028355
12:00+23n69935 0.2 1028326
15:00+23n799274 0.1 1027331
18:00+23nne799345 0.1 1027348
21:00+23n7992100 0.0 1027306
3 august, tue
tue300:00+23nne699199 0.1 1028254
03:00+23nne469084 0.1 1027177
06:00+23n789310 0.2 1027345
09:00+22nne46920 0.0 1028274
12:00+23nne57891 0.0 1028383
15:00+23n34860 0.0 1028240
18:00+23n34820 0.0 1028345
21:00+23n34840 0.0 1029292
4 august, wed
wed400:00+23n23870 0.0 102971
03:00+22n11880 0.0 102877
06:00+22nnw23890 0.0 1028193
09:00+22nw22900 0.0 1029190
12:00+23wnw23870 0.0 1029230
15:00+23wnw34850 0.0 1029340
18:00+24nw45830 0.0 1029435
21:00+23nw23880 0.0 102989